CAPE
0 0 0 0 0 0 0 0 0 0 0 0 0 0 0 0 0 0 0 0 0 0 350 570 722 753 710 642 733 909 853 950 1049 820 772 609 585 559 726 831 855 888 1025 1119
0 0 0 0 0 0 0 0 0 0 0 0 0 0 0 0 0 0 0 0 0 0 0 59 474 789 800 701 581 513 780 832 978 930 837 763 626 683 724 841 969 1026 895 940
0 0 0 0 0 0 0 0 0 0 0 0 0 0 0 0 0 0 0 139 1 0 0 0 121 544 892 877 752 594 579 652 760 818 809 889 770 811 935 1082 1040 887 677 710
0 0 0 0 0 0 0 0 0 0 0 0 0 0 0 0 0 60 95 133 207 105 0 0 0 276 591 841 951 808 720 732 592 567 640 801 767 772 983 1018 797 736 791 763
0 0 0 0 0 0 0 0 0 0 0 0 0 0 0 0 0 24 95 188 223 958 685 160 2 34 42 418 804 882 833 762 781 640 585 660 693 804 896 742 680 735 807 443
0 0 0 0 0 0 0 0 0 0 0 0 0 0 0 0 0 1 134 201 223 347 941 1221 637 291 397 404 515 747 872 724 648 558 607 635 712 833 740 760 736 657 678 757
0 0 0 0 0 0 0 0 0 0 0 0 0 0 0 0 0 0 0 69 161 338 1081 1624 1468 1170 823 1086 757 750 712 641 691 698 685 892 940 946 1006 1062 970 1003 1011 1607
0 0 0 0 0 0 0 0 0 0 0 0 0 0 0 0 0 0 0 0 3 21 818 1916 2070 1848 1667 1409 1571 1455 1519 1546 1556 1386 1207 1210 1213 1277 1472 1616 1794 1703 1763 1416
0 0 0 0 0 0 0 0 0 0 0 0 0 0 0 0 0 0 0 0 87 540 434 625 1852 2389 2218 2004 2073 2116 2082 2226 2406 2388 2485 2776 2525 2034 1944 1933 2061 2103 1292 985
0 0 0 0 0 0 0 0 0 0 0 0 0 0 0 0 0 0 0 118 801 853 785 875 869 861 2204 2467 2473 2611 2706 3058 3048 2570 2225 1981 1699 1672 1639 1803 1602 1513 1099 904
0 0 0 0 0 0 0 0 0 0 0 0 0 0 0 0 0 0 0 715 713 779 904 949 1180 1386 1790 2144 2523 2496 2692 2359 1672 1255 1033 465 644 971 1200 1338 1282 843 836 858
0 0 0 0 0 0 0 0 0 0 0 0 0 0 0 0 66 51 416 502 530 547 570 811 1096 1352 1618 1964 2379 2506 2554 2161 1546 1186 400 1 2 138 610 741 785 891 288 408
0 0 0 0 0 0 0 0 0 0 0 0 0 0 0 0 55 139 137 231 367 349 282 501 719 1432 1614 1669 1782 2271 2348 2464 1798 1334 688 169 0 0 406 543 443 167 186 148
0 0 0 0 0 0 0 0 0 0 0 0 0 0 0 0 43 217 164 174 252 353 343 478 916 1187 1538 1893 1712 1815 2008 2013 1496 1097 660 93 30 189 335 191 107 105 65 19
0 0 0 0 0 0 0 0 0 0 0 0 0 0 0 0 0 7 19 344 473 439 401 286 721 837 1072 1467 1872 1798 1936 1868 1453 808 88 29 302 430 274 9 11 29 0 0
0 0 0 0 0 0 0 0 0 0 0 0 0 0 0 0 0 0 15 59 143 223 243 216 471 394 598 1099 1268 1476 1601 1478 988 510 135 38 473 408 90 0 7 0 0 0
0 0 0 0 0 0 0 0 0 0 0 0 0 0 0 0 0 0 0 12 104 142 109 96 51 213 448 696 989 1165 1590 1620 1184 513 245 524 448 228 72 2 1 3 0 1
0 0 0 0 0 0 0 0 0 0 0 0 0 0 0 0 0 1 5 0 0 11 38 63 38 11 323 654 714 789 1128 1164 921 1025 652 668 386 523 65 15 0 0 3 2
0 0 0 0 0 0 0 0 0 0 0 0 0 0 0 0 2 3 3 2 3 7 9 3 0 0 37 347 814 673 806 1120 866 842 762 443 429 139 52 10 3 1 0 0
0 0 0 0 0 0 0 0 0 0 0 0 0 0 0 0 0 0 0 0 0 0 0 0 2 0 0 17 410 867 775 745 617 390 467 289 176 118 43 46 0 0 0 0
0 0 0 0 0 0 0 0 0 0 0 0 0 0 0 0 0 0 0 0 0 0 0 0 0 0 1 0 16 514 790 873 558 563 318 100 61 112 74 2 0 0 0 0
0 0 0 0 0 0 0 0 0 0 0 0 0 1 0 0 0 0 0 0 0 0 0 0 0 0 0 0 0 49 685 700 652 310 180 101 154 68 0 0 0 0 0 0
0 0 0 0 0 0 0 0 0 0 0 0 0 0 0 0 0 0 0 0 0 0 0 0 0 0 0 0 0 7 399 556 460 314 253 141 133 8 1 0 0 0 0 0
0 0 0 0 0 0 0 0 0 0 0 0 0 0 0 0 0 0 0 0 0 0 0 0 0 0 0 0 0 224 565 376 391 294 186 116 47 59 4 4 0 0 0 0
0 0 0 0 0 0 0 0 0 0 0 0 0 0 0 0 0 0 0 0 0 0 0 0 0 0 0 0 11 366 417 284 180 262 210 103 86 43 4 0 0 0 0 0
0 0 0 0 0 0 0 0 0 0 0 0 0 0 0 0 0 0 0 0 3 15 33 31 1 0 0 6 220 105 144 157 210 209 155 153 86 6 0 0 0 0 0 0
CIN
-0 -0 -0 -0 -0 -0 -0 -0 -0 -0 -0 -0 -0 -0 -0 -0 -0 -0 -0 -0 -0 -1 -185 -160 -131 -139 -153 -165 -537 -392 -358 -266 -212 -192 -137 -133 -151 -155 -435 -340 -267 -229 -115 -90
-0 -0 -0 -0 -0 -0 -0 -0 -0 -0 -0 -0 -0 -0 -0 -0 -0 -0 -0 -0 -0 -0 -0 -324 -248 -99 -72 -132 -151 -127 -420 -351 -269 -222 -167 -127 -164 -179 -300 -138 -147 -164 -132 -126
-0 -0 -0 -0 -0 -0 -0 -0 -0 -0 -0 -0 -0 -0 -0 -0 -0 -0 -0 -119 -68 -0 -0 -0 -435 -258 -116 -84 -71 -47 -20 -418 -321 -268 -229 -162 -250 -353 -278 -190 -164 -129 -106 -78
-0 -0 -0 -0 -0 -0 -0 -0 -0 -0 -0 -0 -0 -0 -0 -0 -0 -49 -65 -86 -172 -319 -0 -0 -0 -370 -251 -170 -86 -57 -19 -11 -15 -93 -338 -203 -145 -294 -219 -137 -118 -89 -74 -63
-0 -0 -0 -0 -0 -0 -0 -0 -0 -0 -0 -0 -0 -0 -0 -0 -0 -21 -39 -34 -64 -375 -525 -598 -1 -17 -107 -281 -128 -95 -49 -13 -3 -14 -10 -247 -360 -276 -142 -104 -178 -93 -86 -83
-0 -0 -0 -0 -0 -0 -0 -0 -0 -0 -0 -0 -0 -0 -0 -0 -0 -22 -20 -22 -32 -168 -385 -399 -513 -816 -431 -37 -139 -72 -36 -16 -10 -16 -614 -488 -368 -283 -152 -28 -18 -35 -77 -17
-0 -0 -0 -0 -0 -0 -0 -0 -0 -0 -0 -0 -0 -0 -0 -0 -0 -0 -1 -28 -20 -171 -288 -290 -402 -510 -549 -704 -523 -528 -425 -273 -784 -591 -529 -422 -312 -244 -170 -92 -62 -47 -58 -0
-0 -0 -0 -0 -0 -0 -0 -0 -0 -0 -0 -0 -0 -0 -0 -0 -0 -0 -0 -0 -75 -45 -165 -175 -201 -278 -290 -509 -581 -626 -586 -562 -495 -445 -416 -357 -251 -163 -41 -39 -19 -9 -0 -0
-0 -0 -0 -0 -0 -0 -0 -0 -0 -0 -0 -0 -0 -0 -0 -0 -0 -0 -0 -0 -189 -300 -336 -17 -117 -114 -177 -365 -450 -419 -465 -392 -314 -231 -177 -96 -71 -74 -62 -30 -3 -1 -17 -24
-0 -0 -0 -0 -0 -0 -0 -0 -0 -0 -0 -0 -0 -0 -0 -0 -0 -0 -0 -297 -226 -251 -266 -275 -365 -240 -115 -107 -241 -265 -256 -229 -140 -91 -40 -58 -62 -60 -53 -24 -5 -23 -48 -45
-0 -0 -0 -0 -0 -0 -0 -0 -0 -0 -0 -0 -0 -0 -0 -0 -0 -0 -0 -174 -175 -151 -162 -172 -203 -248 -219 -131 -86 -113 -183 -53 -76 -121 -16 -1 -14 -26 -4 -0 -3 -45 -61 -47
-0 -0 -0 -0 -0 -0 -0 -0 -0 -0 -0 -0 -0 -0 -0 -0 -302 -341 -215 -190 -171 -157 -121 -119 -301 -283 -160 -142 -116 -72 -105 -93 -66 -68 -84 -0 -1 -160 -129 -4 -0 -2 -91 -62
-0 -0 -0 -0 -0 -0 -0 -0 -0 -0 -0 -0 -0 -0 -0 -0 -270 -196 -189 -198 -214 -156 -200 -434 -417 -300 -310 -280 -105 -68 -144 -124 -82 -46 -48 -110 -13 -9 -14 -0 -9 -75 -84 -78
-0 -0 -0 -0 -0 -0 -0 -0 -0 -0 -0 -0 -0 -0 -0 -0 -274 -166 -154 -162 -188 -147 -220 -347 -348 -271 -205 -194 -165 -240 -96 -93 -78 -49 -51 -161 -138 -148 -42 -104 -101 -110 -83 -130
-0 -0 -0 -0 -0 -0 -0 -0 -0 -0 -0 -0 -0 -0 -0 -0 -0 -39 -178 -123 -98 -90 -134 -89 -250 -231 -245 -208 -145 -121 -88 -75 -74 -104 -114 -289 -199 -69 -76 -46 -69 -100 -0 -0
-0 -0 -0 -0 -0 -0 -0 -0 -0 -0 -0 -0 -0 -0 -0 -0 -0 -0 -85 -88 -83 -74 -72 -58 -207 -265 -196 -165 -163 -118 -70 -59 -73 -81 -73 -315 -70 -80 -91 -0 -58 -0 -0 -0
-0 -0 -0 -0 -0 -0 -0 -0 -0 -0 -0 -0 -0 -0 -0 -0 -0 -0 -0 -33 -12 -15 -22 -26 -58 -226 -186 -158 -123 -102 -44 -24 -57 -58 -143 -65 -38 -83 -90 -25 -15 -88 -0 -0
-0 -0 -0 -0 -0 -0 -0 -0 -0 -0 -0 -0 -0 -0 -0 -0 -0 -2 -6 -0 -0 -28 -19 -30 -39 -263 -151 -85 -92 -112 -50 -55 -55 -22 -45 -32 -48 -22 -73 -63 -7 -0 -1 -15
-0 -0 -0 -0 -0 -0 -0 -0 -0 -0 -0 -0 -0 -0 -0 -0 -0 -0 -1 -7 -11 -9 -5 -3 -0 -0 -252 -108 -27 -48 -86 -10 -26 -12 -3 -31 -33 -43 -51 -65 -82 -0 -1 -0
-0 -0 -0 -0 -0 -0 -0 -0 -0 -0 -0 -0 -0 -0 -0 -0 -0 -0 -0 -0 -0 -0 -0 -0 -3 -0 -0 -294 -72 -19 -34 -20 -17 -41 -6 -12 -29 -28 -50 -66 -0 -0 -0 -0
-0 -0 -0 -0 -0 -0 -0 -0 -0 -0 -0 -0 -0 -0 -0 -0 -0 -0 -0 -0 -0 -0 -0 -0 -0 -0 -8 -0 -280 -49 -7 -0 -15 -2 -8 -29 -38 -19 -25 -9 -0 -0 -0 -0
-0 -0 -0 -0 -0 -0 -0 -0 -0 -0 -0 -0 -0 -4 -0 -0 -0 -0 -0 -0 -0 -0 -0 -0 -0 -0 -0 -0 -0 -227 -26 -4 -0 -0 -5 -9 -12 -28 -0 -0 -0 -0 -0 -0
-0 -0 -0 -0 -0 -0 -0 -0 -0 -0 -0 -0 -0 -0 -0 -0 -0 -0 -0 -0 -0 -0 -0 -0 -0 -0 -0 -0 -0 -101 -69 -10 -5 -0 -0 -2 -13 -15 -0 -0 -0 -0 -0 -0
-0 -0 -0 -0 -0 -0 -0 -0 -0 -0 -0 -0 -0 -0 -0 -0 -0 -0 -0 -0 -0 -0 -0 -0 -0 -0 -0 -0 -0 -44 -28 -25 -3 -0 -1 -0 -12 -10 -2 -1 -0 -0 -0 -0
-0 -0 -0 -0 -0 -0 -0 -0 -0 -0 -0 -0 -0 -0 -0 -0 -0 -0 -0 -0 -0 -0 -0 -0 -0 -0 -0 -0 -25 -33 -24 -27 -31 -2 -0 -2 -0 -0 -0 -0 -0 -0 -0 -0
-0 -0 -0 -0 -0 -0 -0 -0 -0 -0 -0 -0 -0 -0 -0 -0 -0 -0 -0 -0 -4 -4 -10 -7 -1 -0 -0 -30 -43 -42 -32 -10 -1 -0 -0 -0 -0 -1 -0 -0 -0 -0 -0 -0
Wind_Speed
nan nan nan nan nan nan nan nan nan nan nan nan nan nan nan nan nan nan nan nan nan nan 21 11 16 17 13 9 13 19 21 19 21 19 20 20 18 18 20 21 24 28 34 45
nan nan nan nan nan nan nan nan nan nan nan nan nan nan nan nan nan nan nan nan nan nan nan nan 17 21 17 20 18 20 21 20 24 23 21 23 24 23 26 29 31 38 44 52
nan nan nan nan nan nan nan nan nan nan nan nan nan nan nan nan nan nan nan 7 nan nan nan nan 21 22 19 20 29 22 23 19 24 25 29 30 30 31 33 34 37 41 50 52
nan nan nan nan nan nan nan nan nan nan nan nan nan nan nan nan nan nan nan 6 5 12 nan nan nan 3 14 16 23 21 23 21 22 31 34 34 35 36 38 41 43 45 51 56
nan nan nan nan nan nan nan nan nan nan nan nan nan nan nan nan nan nan nan 18 12 17 17 7 nan nan nan 19 20 25 24 21 26 27 27 30 30 33 36 39 44 50 52 43
nan nan nan nan nan nan nan nan nan nan nan nan nan nan nan nan nan nan 9 16 18 22 23 19 21 17 12 15 22 21 18 22 28 32 29 30 32 33 34 34 36 41 41 40
nan nan nan nan nan nan nan nan nan nan nan nan nan nan nan nan nan nan nan nan 12 15 18 20 21 18 19 20 24 25 25 24 34 36 36 37 38 39 40 43 41 40 38 37
nan nan nan nan nan nan nan nan nan nan nan nan nan nan nan nan nan nan nan nan nan nan 14 21 12 22 18 26 19 23 24 28 32 33 33 40 40 37 36 38 42 38 39 35
nan nan nan nan nan nan nan nan nan nan nan nan nan nan nan nan nan nan nan nan nan 17 16 16 16 18 14 19 26 31 39 36 37 37 40 38 33 36 40 42 43 39 35 38
nan nan nan nan nan nan nan nan nan nan nan nan nan nan nan nan nan nan nan 24 23 26 26 23 17 17 23 21 33 40 39 36 39 40 38 36 36 36 35 40 41 35 39 40
nan nan nan nan nan nan nan nan nan nan nan nan nan nan nan nan nan nan nan 23 23 22 21 19 18 17 21 27 27 29 34 44 52 61 57 43 36 37 31 37 37 36 38 37
nan nan nan nan nan nan nan nan nan nan nan nan nan nan nan nan nan nan 24 25 22 20 20 21 19 20 21 27 34 36 46 52 57 63 73 nan nan 30 49 40 39 38 35 35
nan nan nan nan nan nan nan nan nan nan nan nan nan nan nan nan nan 33 32 28 27 28 30 29 30 29 29 28 35 48 57 55 55 52 62 66 nan nan 69 42 37 33 29 33
nan nan nan nan nan nan nan nan nan nan nan nan nan nan nan nan nan 33 34 32 33 37 37 36 36 34 32 36 44 53 59 57 52 50 51 nan nan 60 49 36 28 27 nan nan
nan nan nan nan nan nan nan nan nan nan nan nan nan nan nan nan nan nan nan 38 41 42 42 41 41 40 39 41 48 58 55 49 48 48 nan nan 50 46 51 nan nan nan nan nan
nan nan nan nan nan nan nan nan nan nan nan nan nan nan nan nan nan nan nan nan 42 42 42 41 41 41 44 46 49 51 51 40 39 35 38 nan 44 41 nan nan nan nan nan nan
nan nan nan nan nan nan nan nan nan nan nan nan nan nan nan nan nan nan nan nan 40 41 42 nan nan 41 42 45 49 51 52 48 41 40 44 43 42 39 nan nan nan nan nan nan
nan nan nan nan nan nan nan nan nan nan nan nan nan nan nan nan nan nan nan nan nan nan nan nan nan nan 45 44 45 45 49 48 38 35 44 43 36 32 nan nan nan nan nan nan
nan nan nan nan nan nan nan nan nan nan nan nan nan nan nan nan nan nan nan nan nan nan nan nan nan nan nan 42 39 43 50 48 46 41 42 33 32 31 nan nan nan nan nan nan
nan nan nan nan nan nan nan nan nan nan nan nan nan nan nan nan nan nan nan nan nan nan nan nan nan nan nan nan 40 42 41 29 35 40 35 32 30 28 nan nan nan nan nan nan
nan nan nan nan nan nan nan nan nan nan nan nan nan nan nan nan nan nan nan nan nan nan nan nan nan nan nan nan nan 35 34 38 34 34 33 31 nan 30 nan nan nan nan nan nan
nan nan nan nan nan nan nan nan nan nan nan nan nan nan nan nan nan nan nan nan nan nan nan nan nan nan nan nan nan nan 22 24 25 29 30 28 25 nan nan nan nan nan nan nan
nan nan nan nan nan nan nan nan nan nan nan nan nan nan nan nan nan nan nan nan nan nan nan nan nan nan nan nan nan nan 20 25 28 23 25 25 27 nan nan nan nan nan nan nan
nan nan nan nan nan nan nan nan nan nan nan nan nan nan nan nan nan nan nan nan nan nan nan nan nan nan nan nan nan 7 19 17 23 21 24 22 nan nan nan nan nan nan nan nan
nan nan nan nan nan nan nan nan nan nan nan nan nan nan nan nan nan nan nan nan nan nan nan nan nan nan nan nan nan 12 12 19 20 23 22 22 nan nan nan nan nan nan nan nan
nan nan nan nan nan nan nan nan nan nan nan nan nan nan nan nan nan nan nan nan nan nan nan nan nan nan nan nan 12 12 14 20 22 21 18 17 nan nan nan nan nan nan nan nan
Wind_Direction
nan nan nan nan nan nan nan nan nan nan nan nan nan nan nan nan nan nan nan nan nan nan 17 337 311 325 292 325 343 340 328 332 316 318 310 308 325 318 312 310 313 308 300 295
nan nan nan nan nan nan nan nan nan nan nan nan nan nan nan nan nan nan nan nan nan nan nan nan 328 307 323 338 343 327 335 311 316 312 303 292 293 293 291 295 294 295 293 294
nan nan nan nan nan nan nan nan nan nan nan nan nan nan nan nan nan nan nan 299 nan nan nan nan 310 326 311 325 327 323 322 300 310 310 292 290 287 286 286 288 288 292 295 302
nan nan nan nan nan nan nan nan nan nan nan nan nan nan nan nan nan nan nan 167 9 267 nan nan nan 92 321 317 291 293 302 303 306 306 306 307 301 297 287 287 287 286 282 285
nan nan nan nan nan nan nan nan nan nan nan nan nan nan nan nan nan nan nan 194 219 262 264 243 nan nan nan 293 297 296 307 320 313 319 316 304 298 292 288 286 286 283 282 302
nan nan nan nan nan nan nan nan nan nan nan nan nan nan nan nan nan nan 181 200 222 247 261 240 243 260 248 288 294 312 311 322 320 309 303 304 307 308 300 300 299 305 310 305
nan nan nan nan nan nan nan nan nan nan nan nan nan nan nan nan nan nan nan nan 213 253 258 244 249 271 272 308 314 323 310 309 316 316 313 311 313 312 315 310 308 304 301 296
nan nan nan nan nan nan nan nan nan nan nan nan nan nan nan nan nan nan nan nan nan nan 240 265 290 300 291 342 340 332 311 305 310 312 318 308 305 300 296 297 299 304 303 304
nan nan nan nan nan nan nan nan nan nan nan nan nan nan nan nan nan nan nan nan nan 232 259 248 277 296 320 311 317 321 312 309 309 310 304 300 294 289 298 297 296 300 297 293
nan nan nan nan nan nan nan nan nan nan nan nan nan nan nan nan nan nan nan 255 249 245 238 244 265 280 297 298 295 299 307 308 297 281 277 285 283 278 277 281 290 294 294 296
nan nan nan nan nan nan nan nan nan nan nan nan nan nan nan nan nan nan nan 278 278 272 252 243 253 266 277 278 282 302 303 279 281 278 264 251 250 258 255 263 265 274 282 291
nan nan nan nan nan nan nan nan nan nan nan nan nan nan nan nan nan nan 265 262 265 267 265 270 276 282 282 301 304 299 289 300 302 301 295 nan nan 333 300 267 258 268 277 287
nan nan nan nan nan nan nan nan nan nan nan nan nan nan nan nan nan 268 268 264 269 263 260 262 258 261 273 281 300 297 299 303 306 306 308 320 nan nan 327 269 270 273 292 302
nan nan nan nan nan nan nan nan nan nan nan nan nan nan nan nan nan 264 267 274 270 267 265 265 266 269 269 282 294 297 299 302 303 306 311 nan nan 331 330 301 276 285 nan nan
nan nan nan nan nan nan nan nan nan nan nan nan nan nan nan nan nan nan nan 271 268 267 268 270 270 271 271 279 289 292 298 300 297 294 nan nan 313 327 322 nan nan nan nan nan
nan nan nan nan nan nan nan nan nan nan nan nan nan nan nan nan nan nan nan nan 271 270 269 269 272 275 277 283 287 289 290 284 284 286 294 nan 310 316 nan nan nan nan nan nan
nan nan nan nan nan nan nan nan nan nan nan nan nan nan nan nan nan nan nan nan 277 276 274 nan nan 275 277 279 287 290 290 287 281 293 297 308 314 320 nan nan nan nan nan nan
nan nan nan nan nan nan nan nan nan nan nan nan nan nan nan nan nan nan nan nan nan nan nan nan nan nan 269 273 279 285 289 286 284 297 302 311 310 309 nan nan nan nan nan nan
nan nan nan nan nan nan nan nan nan nan nan nan nan nan nan nan nan nan nan nan nan nan nan nan nan nan nan 271 274 279 288 276 282 291 297 310 309 311 nan nan nan nan nan nan
nan nan nan nan nan nan nan nan nan nan nan nan nan nan nan nan nan nan nan nan nan nan nan nan nan nan nan nan 264 273 282 279 277 290 302 312 311 312 nan nan nan nan nan nan
nan nan nan nan nan nan nan nan nan nan nan nan nan nan nan nan nan nan nan nan nan nan nan nan nan nan nan nan nan 292 279 282 283 293 295 299 nan 308 nan nan nan nan nan nan
nan nan nan nan nan nan nan nan nan nan nan nan nan nan nan nan nan nan nan nan nan nan nan nan nan nan nan nan nan nan 301 294 287 291 295 296 296 nan nan nan nan nan nan nan
nan nan nan nan nan nan nan nan nan nan nan nan nan nan nan nan nan nan nan nan nan nan nan nan nan nan nan nan nan nan 290 286 287 291 285 281 278 nan nan nan nan nan nan nan
nan nan nan nan nan nan nan nan nan nan nan nan nan nan nan nan nan nan nan nan nan nan nan nan nan nan nan nan nan 285 278 288 300 291 286 286 nan nan nan nan nan nan nan nan
nan nan nan nan nan nan nan nan nan nan nan nan nan nan nan nan nan nan nan nan nan nan nan nan nan nan nan nan nan 276 300 306 303 298 291 282 nan nan nan nan nan nan nan nan
nan nan nan nan nan nan nan nan nan nan nan nan nan nan nan nan nan nan nan nan nan nan nan nan nan nan nan nan 271 277 306 319 311 304 285 285 nan nan nan nan nan nan nan nan